When you browse on this site, cookies collect data to enhance your experience and personalize the content and advertising you see.
Visit our Privacy Policy to learn more. By continuing to use the site, you agree to this use of cookies and data.
  • In Sweden
  • List of Countries
  • For 7 days
  • Water Temperature
  • Weather Map
  • Weather Widgets
  • user-avatar
    Login

    Hourly Weather Aguilares

    Today, 22 November, Friday

    Time Temperature Precipitation Wind Pressure Humidity
    00:00 +21°C° 0 mm 0 mps 730 mmHg 93%
    01:00 +20°C° 0 mm 0 mps 729 mmHg 93%
    02:00 +22°C° 0 mm 1 mps 729 mmHg 94%
    03:00 +22°C° 0 mm 1 mps 729 mmHg 95%
    04:00 +20°C° 0 mm 0 mps 729 mmHg 95%
    05:00 +19°C° 0 mm 0 mps 729 mmHg 95%
    06:00 +20°C° 0 mm 0 mps 730 mmHg 97%
    07:00 +22°C° 0 mm 0 mps 730 mmHg 89%
    08:00 +26°C° 0 mm 1 mps 731 mmHg 81%
    09:00 +28°C° 0 mm 1 mps 731 mmHg 74%
    10:00 +30°C° 0 mm 1 mps 731 mmHg 69%
    11:00 +29°C° 0 mm 0 mps 730 mmHg 64%
    12:00 +31°C° 0 mm 0 mps 730 mmHg 59%
    13:00 +30°C° 0.1 mm 0 mps 729 mmHg 60%
    14:00 +32°C° 0.1 mm 1 mps 729 mmHg 61%
    15:00 +31°C° 0.1 mm 1 mps 728 mmHg 62%
    16:00 +29°C° 0.1 mm 1 mps 728 mmHg 71%
    17:00 +27°C° 0.1 mm 1 mps 728 mmHg 81%
    18:00 +25°C° 0.1 mm 1 mps 728 mmHg 90%
    19:00 +25°C° 0.2 mm 1 mps 729 mmHg 92%
    20:00 +22°C° 0.2 mm 0 mps 729 mmHg 94%
    21:00 +22°C° 0.2 mm 0 mps 730 mmHg 96%
    22:00 +21°C° 0 mm 0 mps 730 mmHg 96%
    23:00 +21°C° 0 mm 0 mps 729 mmHg 97%

    Tomorrow, 23 November, Saturday

    Time Temperature Precipitation Wind Pressure Humidity
    00:00 +21°C° 0 mm 0 mps 729 mmHg 97%
    01:00 +21°C° 0 mm 0 mps 729 mmHg 97%
    02:00 +21°C° 0 mm 0 mps 729 mmHg 97%
    03:00 +20°C° 0 mm 0 mps 728 mmHg 97%
    04:00 +20°C° 0 mm 0 mps 728 mmHg 97%
    05:00 +20°C° 0 mm 0 mps 729 mmHg 97%
    06:00 +20°C° 0 mm 0 mps 729 mmHg 97%
    07:00 +22°C° 0 mm 0 mps 730 mmHg 91%
    08:00 +24°C° 0 mm 0 mps 730 mmHg 84%
    09:00 +26°C° 0 mm 0 mps 731 mmHg 77%
    10:00 +28°C° 0.1 mm 0 mps 731 mmHg 72%
    11:00 +29°C° 0.1 mm 0 mps 730 mmHg 67%
    12:00 +30°C° 0.1 mm 0 mps 730 mmHg 62%
    13:00 +30°C° 0.3 mm 0 mps 729 mmHg 62%
    14:00 +30°C° 0.3 mm 0 mps 729 mmHg 63%
    15:00 +30°C° 0.3 mm 0 mps 728 mmHg 63%
    16:00 +28°C° 0.4 mm 0 mps 728 mmHg 72%
    17:00 +28°C° 0.4 mm 1 mps 728 mmHg 80%
    18:00 +26°C° 0.4 mm 1 mps 728 mmHg 89%
    19:00 +23°C° 0.1 mm 0 mps 729 mmHg 91%
    20:00 +22°C° 0.1 mm 0 mps 729 mmHg 93%
    21:00 +22°C° 0.1 mm 0 mps 730 mmHg 95%
    22:00 +22°C° 0 mm 0 mps 730 mmHg 95%
    23:00 +21°C° 0 mm 0 mps 730 mmHg 95%

    Day after tomorrow, 24 November, Sunday

    Time Temperature Precipitation Wind Pressure Humidity
    00:00 +21°C° 0 mm 0 mps 729 mmHg 96%
    01:00 +23°C° 0 mm 1 mps 729 mmHg 96%
    02:00 +23°C° 0 mm 1 mps 729 mmHg 96%
    03:00 +22°C° 0 mm 1 mps 729 mmHg 96%
    04:00 +22°C° 0 mm 1 mps 729 mmHg 96%
    05:00 +22°C° 0 mm 1 mps 729 mmHg 96%
    06:00 +22°C° 0 mm 1 mps 729 mmHg 96%
    07:00 +24°C° 0 mm 1 mps 730 mmHg 90%
    08:00 +26°C° 0 mm 1 mps 730 mmHg 83%
    09:00 +28°C° 0 mm 1 mps 731 mmHg 76%
    10:00 +29°C° 0 mm 1 mps 730 mmHg 69%
    11:00 +31°C° 0 mm 1 mps 730 mmHg 61%
    12:00 +33°C° 0 mm 1 mps 729 mmHg 54%
    13:00 +33°C° 0 mm 1 mps 729 mmHg 54%
    14:00 +31°C° 0 mm 0 mps 728 mmHg 54%
    15:00 +31°C° 0 mm 0 mps 727 mmHg 54%
    16:00 +28°C° 0.1 mm 0 mps 728 mmHg 63%
    17:00 +28°C° 0.1 mm 1 mps 728 mmHg 73%
    18:00 +26°C° 0.1 mm 1 mps 728 mmHg 82%
    19:00 +25°C° 0 mm 1 mps 728 mmHg 84%
    20:00 +24°C° 0 mm 1 mps 729 mmHg 86%
    21:00 +22°C° 0 mm 0 mps 729 mmHg 88%
    22:00 +23°C° 0 mm 1 mps 729 mmHg 89%
    23:00 +23°C° 0 mm 1 mps 729 mmHg 90%

    25 November, Monday

    Time Temperature Precipitation Wind Pressure Humidity
    00:00 +23°C° 0 mm 1 mps 728 mmHg 90%
    01:00 +22°C° 0 mm 1 mps 728 mmHg 91%
    02:00 +22°C° 0 mm 1 mps 728 mmHg 92%
    03:00 +22°C° 0 mm 1 mps 727 mmHg 93%
    04:00 +22°C° 0 mm 1 mps 727 mmHg 94%
    05:00 +21°C° 0 mm 1 mps 728 mmHg 94%
    06:00 +21°C° 0 mm 1 mps 728 mmHg 95%
    07:00 +24°C° 0 mm 1 mps 728 mmHg 87%
    08:00 +26°C° 0 mm 1 mps 729 mmHg 79%
    09:00 +28°C° 0 mm 1 mps 729 mmHg 71%
    10:00 +29°C° 0 mm 1 mps 729 mmHg 66%
    11:00 +31°C° 0 mm 1 mps 728 mmHg 61%
    12:00 +32°C° 0 mm 1 mps 728 mmHg 56%
    13:00 +32°C° 0 mm 1 mps 727 mmHg 57%
    14:00 +30°C° 0 mm 0 mps 727 mmHg 57%
    15:00 +30°C° 0 mm 0 mps 726 mmHg 58%
    16:00 +28°C° 0.2 mm 0 mps 726 mmHg 68%
    17:00 +28°C° 0.2 mm 1 mps 726 mmHg 77%
    18:00 +26°C° 0.2 mm 1 mps 727 mmHg 87%
    19:00 +25°C° 0.1 mm 1 mps 727 mmHg 89%
    20:00 +22°C° 0.1 mm 0 mps 728 mmHg 92%
    21:00 +22°C° 0.1 mm 0 mps 728 mmHg 95%
    22:00 +22°C° 0 mm 0 mps 728 mmHg 95%
    23:00 +21°C° 0 mm 0 mps 728 mmHg 95%

    26 November, Tuesday

    Time Temperature Precipitation Wind Pressure Humidity
    00:00 +21°C° 0 mm 0 mps 728 mmHg 95%
    01:00 +21°C° 0 mm 0 mps 727 mmHg 96%
    02:00 +21°C° 0 mm 0 mps 727 mmHg 96%
    03:00 +20°C° 0 mm 0 mps 727 mmHg 96%
    04:00 +20°C° 0 mm 0 mps 727 mmHg 96%
    05:00 +20°C° 0 mm 0 mps 728 mmHg 96%
    06:00 +20°C° 0 mm 0 mps 728 mmHg 97%
    07:00 +22°C° 0 mm 0 mps 728 mmHg 89%
    08:00 +24°C° 0 mm 0 mps 729 mmHg 82%
    09:00 +26°C° 0 mm 0 mps 729 mmHg 75%
    10:00 +28°C° 0 mm 0 mps 729 mmHg 69%
    11:00 +29°C° 0 mm 0 mps 728 mmHg 63%
    12:00 +31°C° 0 mm 0 mps 728 mmHg 57%
    13:00 +33°C° 0 mm 1 mps 728 mmHg 57%
    14:00 +32°C° 0 mm 1 mps 727 mmHg 58%
    15:00 +32°C° 0 mm 1 mps 726 mmHg 58%
    16:00 +30°C° 0.1 mm 1 mps 727 mmHg 68%
    17:00 +28°C° 0.1 mm 1 mps 727 mmHg 78%
    18:00 +26°C° 0.1 mm 1 mps 727 mmHg 88%
    19:00 +25°C° 0 mm 1 mps 728 mmHg 90%
    20:00 +23°C° 0 mm 0 mps 728 mmHg 93%
    21:00 +22°C° 0 mm 0 mps 729 mmHg 96%
    22:00 +22°C° 0 mm 0 mps 728 mmHg 96%
    23:00 +21°C° 0 mm 0 mps 728 mmHg 96%

    27 November, Wednesday

    Time Temperature Precipitation Wind Pressure Humidity
    00:00 +21°C° 0 mm 0 mps 728 mmHg 96%
    01:00 +21°C° 0 mm 0 mps 728 mmHg 96%
    02:00 +21°C° 0 mm 0 mps 728 mmHg 96%
    03:00 +21°C° 0 mm 0 mps 728 mmHg 96%
    04:00 +22°C° 0 mm 1 mps 728 mmHg 96%
    05:00 +22°C° 0 mm 1 mps 728 mmHg 96%
    06:00 +22°C° 0 mm 1 mps 729 mmHg 96%
    07:00 +24°C° 0 mm 1 mps 729 mmHg 88%
    08:00 +26°C° 0 mm 1 mps 730 mmHg 80%
    09:00 +28°C° 0 mm 1 mps 731 mmHg 72%
    10:00 +30°C° 0 mm 1 mps 730 mmHg 65%
    11:00 +32°C° 0 mm 1 mps 730 mmHg 59%
    12:00 +33°C° 0 mm 1 mps 730 mmHg 53%
    13:00 +33°C° 0 mm 1 mps 729 mmHg 52%
    14:00 +33°C° 0 mm 1 mps 728 mmHg 52%
    15:00 +33°C° 0 mm 1 mps 728 mmHg 51%
    16:00 +29°C° 0 mm 0 mps 728 mmHg 59%
    17:00 +27°C° 0 mm 0 mps 728 mmHg 67%
    18:00 +25°C° 0 mm 0 mps 728 mmHg 75%
    19:00 +24°C° 0 mm 0 mps 729 mmHg 77%
    20:00 +26°C° 0 mm 1 mps 729 mmHg 79%
    21:00 +25°C° 0 mm 1 mps 729 mmHg 82%
    22:00 +25°C° 0 mm 1 mps 729 mmHg 84%
    23:00 +24°C° 0 mm 1 mps 729 mmHg 86%
    Show more